Wind_Speed
12 11 11 11 8 6 6 7 5 5 5 5 8 7 7 11 11 12 13 15 15 15 16 18 22 26 29 32 36 42 48 52 58 58 62 61 60 58 57 56 56 57 57 56 55 54 55 53 53
12 11 10 11 9 5 5 6 4 4 5 5 6 8 9 7 8 7 7 11 12 13 14 14 15 19 22 26 30 35 41 47 51 55 62 61 61 59 56 56 56 60 59 60 61 61 60 60 58
11 10 10 9 9 5 5 4 3 4 4 4 5 5 8 9 8 7 6 6 8 8 9 11 12 13 16 20 24 29 34 41 46 50 60 63 63 62 62 60 60 59 62 62 63 64 62 62 62
9 9 8 9 10 7 6 5 4 5 6 6 6 7 6 6 9 8 8 8 5 8 8 10 11 13 14 15 19 25 29 35 40 43 47 53 61 65 64 64 65 65 65 65 63 65 66 65 66
11 8 7 7 9 8 6 8 6 5 7 7 6 8 8 7 6 5 6 7 10 11 10 9 10 14 14 17 19 21 24 30 36 42 45 48 50 54 61 67 70 68 67 68 69 68 67 69 69
13 11 10 6 8 7 7 6 7 7 7 8 8 9 10 9 8 6 3 3 5 5 8 11 13 14 16 18 18 20 23 25 28 34 40 46 51 52 54 58 62 66 70 74 74 75 72 73 73
14 13 11 9 8 6 7 7 8 8 7 7 8 9 11 9 6 5 5 2 0 4 6 7 9 12 14 16 19 22 23 24 26 29 33 37 42 47 51 55 58 59 62 65 70 73 74 75 72
12 13 12 9 8 7 6 7 9 11 10 9 7 7 9 11 9 7 6 8 8 6 5 6 7 8 10 12 15 17 19 24 27 30 29 31 35 40 44 49 53 57 60 62 64 66 68 71 73
11 12 11 9 9 6 5 7 9 10 13 15 14 12 10 10 11 12 14 14 15 16 16 14 13 12 12 11 12 15 18 20 23 26 29 33 33 34 36 38 41 47 52 58 62 65 68 70 72
12 10 9 9 9 6 5 6 8 10 12 15 17 18 17 14 13 15 17 19 21 21 20 20 19 17 18 18 19 19 21 22 23 25 27 29 32 35 38 41 41 40 41 44 47 52 58 63 68
13 10 9 8 9 8 6 8 9 10 12 15 18 19 19 17 16 16 17 19 21 24 25 26 26 26 26 25 26 25 26 27 28 29 29 30 30 32 34 36 39 42 44 46 48 49 51 53 55
15 13 12 11 10 8 7 9 12 13 15 15 16 17 20 22 22 21 19 20 22 24 25 25 25 26 27 27 29 31 32 32 33 34 36 38 38 37 37 37 40 42 44 46 48 50 52 53 55
17 16 14 14 12 9 10 11 15 14 15 17 18 19 19 19 21 23 24 24 25 24 24 28 31 31 32 32 33 35 36 35 35 37 39 41 42 44 47 46 45 44 46 48 50 52 53 54 56
19 17 17 18 13 10 13 14 16 16 19 21 23 22 22 22 23 24 24 26 29 31 32 29 28 30 34 37 38 39 40 42 43 44 45 46 48 50 50 49 50 52 52 54 55 53 55 55 55
20 19 20 20 15 15 18 18 19 19 21 24 25 24 26 27 26 27 29 31 31 34 36 37 37 39 39 41 41 41 44 45 46 48 49 50 50 52 54 58 60 60 58 58 59 61 61 59 59
22 23 22 20 18 18 21 20 20 22 23 25 27 26 28 28 27 27 28 31 34 36 37 40 42 44 47 48 49 49 50 53 54 53 54 56 56 58 59 59 61 65 66 67 66 64 65 66 65
25 27 26 22 19 18 22 21 22 23 25 27 30 31 31 29 29 31 33 35 37 40 41 42 45 46 48 52 55 56 56 59 60 62 62 63 65 66 67 69 70 71 71 71 73 74 71 69 69
30 29 30 24 18 19 21 23 25 24 28 29 30 31 33 33 33 34 38 40 43 45 45 48 51 54 56 58 61 65 66 66 66 67 69 70 72 72 72 74 76 78 80 81 81 81 82 80 78
32 33 34 30 23 21 21 25 28 29 30 30 31 32 34 36 37 38 40 45 49 49 47 47 50 54 56 58 62 64 67 71 73 76 76 74 74 78 80 81 84 85 86 88 88 89 89 89 88
37 34 39 33 26 24 26 27 32 32 33 32 34 36 37 38 39 42 46 48 47 47 47 47 50 55 56 62 64 69 68 70 73 73 75 76 77 80 81 78 82 88 91 93 92 93 94 95 95
36 37 41 32 31 28 28 28 36 36 37 37 39 40 40 41 43 46 49 51 53 53 57 59 58 62 65 69 71 73 77 81 78 80 78 77 79 73 76 75 76 79 87 95 98 100 99 98 101
37 40 39 37 33 32 34 27 40 41 41 43 45 45 47 48 49 51 53 56 58 60 63 64 68 71 71 71 69 68 70 76 74 78 84 86 84 85 82 83 78 80 86 92 96 104 108 108 107
36 41 42 42 38 34 37 42 37 46 49 50 52 52 50 54 56 57 58 61 63 63 64 66 70 73 76 78 79 79 79 82 89 84 90 80 80 84 87 90 95 93 92 92 96 91 97 110 113
43 46 49 46 44 35 48 51 36 54 57 58 58 57 57 57 59 61 58 58 62 66 68 71 73 76 82 86 89 92 97 93 91 87 82 82 89 88 86 93 95 97 96 94 99 100 102 101 107
52 51 50 50 52 50 53 53 46 54 60 63 62 63 63 63 63 63 68 68 64 67 66 69 76 81 87 90 91 89 92 95 91 86 86 83 90 92 94 98 99 101 103 104 104 103 104 101 108
59 58 56 55 53 54 54 51 54 60 63 64 64 65 66 66 68 69 71 70 65 67 71 77 82 86 89 93 92 95 97 98 98 87 91 92 92 100 102 109 106 105 103 102 109 107 110 116 116
59 56 62 59 56 56 55 55 57 59 62 64 65 66 69 70 71 75 75 74 76 76 82 85 87 89 95 97 98 101 98 92 97 93 95 101 104 107 109 107 105 106 109 110 111 112 114 116 115
57 60 62 63 63 62 59 60 63 65 68 70 74 77 79 79 81 80 73 77 79 83 85 90 95 97 97 99 104 99 100 96 89 93 98 106 112 117 114 109 106 107 104 102 101 100 104 106 106
62 62 66 69 68 67 67 64 66 70 73 76 79 82 83 84 86 83 84 85 89 93 95 95 98 98 102 103 105 110 105 108 104 101 105 114 119 121 115 112 110 105 103 103 97 95 97 98 99
65 64 69 72 73 75 72 66 72 74 76 79 82 85 85 83 82 87 90 91 89 92 94 101 104 102 110 105 107 97 102 104 103 110 116 124 126 124 112 108 103 99 97 98 97 99 99 100 100
Wind_Direction
316 314 309 306 310 325 336 341 337 327 328 263 268 270 244 223 213 206 216 222 225 228 231 232 232 230 226 227 228 226 223 223 223 221 219 222 225 231 234 233 232 232 234 234 235 237 239 238 240
317 313 304 301 307 318 336 352 354 339 329 319 274 277 275 265 236 223 213 219 228 232 236 237 238 237 239 233 229 229 229 228 229 229 226 227 231 232 237 239 239 237 237 237 238 238 238 241 242
316 316 312 310 307 318 326 341 360 12 3 346 326 293 290 293 287 262 239 227 235 230 242 253 256 248 240 238 237 236 233 235 236 234 232 231 234 235 238 241 243 243 243 242 244 245 245 245 245
323 318 318 310 317 327 322 321 343 20 14 348 10 3 347 328 332 313 285 274 248 228 236 234 242 245 249 248 242 235 235 235 237 239 239 239 240 241 241 242 244 246 247 247 249 250 249 249 251
319 316 309 310 313 320 311 316 316 358 20 15 11 9 1 1 13 357 334 305 284 279 270 258 248 237 239 242 242 240 240 237 237 240 241 242 243 243 245 246 248 249 250 251 253 252 250 251 253
312 310 313 315 309 316 304 294 304 316 348 12 17 2 11 12 6 13 6 331 316 296 281 278 270 260 251 243 241 242 243 242 240 240 241 243 246 246 247 246 248 250 253 254 255 255 254 254 255
309 309 302 301 309 319 304 298 292 300 310 347 360 2 356 11 9 17 357 359 243 259 279 280 276 282 277 266 260 247 241 240 242 246 246 245 244 246 248 249 250 252 253 254 255 255 256 256 258
298 301 298 291 290 303 305 304 291 299 303 306 311 330 336 337 339 325 316 316 315 308 296 277 281 273 271 277 278 275 265 254 249 245 244 247 251 252 253 252 252 252 253 255 257 257 258 259 260
285 295 293 293 286 288 307 305 305 302 305 304 307 308 309 303 306 304 302 299 299 304 301 295 286 274 270 274 275 271 268 267 264 260 254 249 247 248 249 251 256 258 259 258 258 259 259 260 260
266 278 283 286 291 299 311 305 304 305 308 304 305 307 306 301 290 283 283 285 287 287 287 290 291 285 276 270 265 267 271 269 267 267 263 260 257 257 256 255 254 252 255 258 258 260 260 260 261
269 267 262 266 271 280 288 293 296 294 301 299 299 300 303 300 292 285 278 279 286 285 281 281 282 284 285 286 282 272 264 261 263 264 265 265 264 262 264 265 263 260 258 259 260 258 258 257 258
264 266 263 266 267 271 281 286 292 300 295 295 295 297 297 299 301 299 293 287 286 285 282 283 280 278 281 287 289 287 284 281 274 268 266 266 265 264 265 267 269 269 268 265 264 264 265 264 263
268 267 267 267 263 268 279 287 295 297 293 292 292 294 298 301 303 306 308 308 305 299 292 286 286 285 285 286 287 284 283 282 283 285 285 283 280 274 269 266 265 265 266 268 268 266 264 263 266
264 265 267 271 269 283 284 282 281 283 283 287 296 300 302 307 306 305 304 303 302 301 298 294 291 288 291 293 294 294 292 289 286 283 282 282 284 284 281 275 270 268 266 266 265 265 265 264 263
261 263 265 270 277 286 292 290 289 288 290 292 297 300 301 302 303 302 301 302 299 298 301 303 305 307 306 305 305 304 305 302 297 291 288 287 285 285 285 285 284 280 276 272 267 265 264 264 263
258 261 261 264 275 287 285 283 283 287 289 291 292 294 295 297 295 296 299 301 303 305 305 306 307 308 305 303 302 300 297 293 292 290 288 290 290 289 288 285 283 282 281 281 277 272 269 265 262
262 262 259 260 265 273 277 279 283 285 290 291 291 294 294 294 294 298 300 301 302 302 304 304 299 295 295 297 298 298 297 296 295 293 291 288 288 288 287 286 285 283 280 281 279 277 274 268 264
262 264 266 262 267 275 279 283 282 287 288 288 290 292 292 293 291 291 295 296 299 299 297 295 296 296 301 300 298 296 295 294 294 292 291 289 287 285 284 283 282 280 280 279 279 278 277 275 274
264 262 265 265 265 271 276 281 282 285 285 285 285 283 284 287 289 289 292 295 295 296 298 297 297 296 298 296 295 296 293 294 293 292 288 286 287 288 285 283 283 282 280 279 278 276 277 274 273
262 263 265 266 266 270 275 280 280 281 281 281 281 280 280 279 282 287 291 291 290 292 289 291 292 304 303 303 302 300 294 293 290 287 284 285 282 279 278 278 278 280 279 279 276 275 275 274 272
267 261 261 267 267 270 273 279 280 280 279 280 281 278 275 274 276 281 285 285 287 291 290 287 293 296 294 296 298 298 298 298 294 290 282 280 282 279 279 279 278 274 273 272 274 275 275 273 273
268 267 262 264 268 271 273 270 280 278 278 278 279 280 278 278 279 280 286 289 285 287 290 290 291 292 293 294 295 294 295 291 284 282 277 278 277 282 278 280 282 286 278 274 272 272 269 270 271
268 269 265 265 268 270 275 271 272 280 279 278 277 277 278 275 276 279 280 284 285 286 285 284 286 288 291 294 295 294 295 292 289 284 285 281 283 285 281 284 282 286 285 277 272 272 276 268 266
271 272 269 268 268 270 271 272 277 278 280 277 276 276 276 278 277 277 280 287 285 284 284 283 283 287 290 293 295 294 292 290 289 286 289 292 290 287 293 290 289 288 284 282 275 274 274 272 269
272 273 272 271 270 269 269 276 279 275 277 279 278 276 274 277 274 276 280 288 285 283 280 283 284 284 288 290 292 292 290 290 286 286 290 293 296 297 300 297 294 291 285 280 279 277 274 274 270
269 275 273 270 270 270 270 274 273 277 278 277 276 274 273 273 274 279 283 284 286 283 281 283 284 286 289 293 292 289 288 286 286 287 294 291 295 295 302 295 295 297 289 285 278 276 274 272 272
270 272 268 270 272 271 271 271 272 275 279 282 281 280 277 276 277 280 284 284 282 282 285 288 289 288 290 289 288 288 287 288 291 294 295 303 305 304 305 301 301 295 288 285 280 278 277 276 273
266 266 268 270 269 271 272 270 272 278 281 280 279 279 280 281 280 282 284 286 285 285 287 288 286 287 287 288 292 292 287 297 300 304 306 305 306 308 304 298 301 293 289 287 284 282 279 278 275
265 268 270 269 269 269 268 273 275 276 276 274 275 277 277 277 280 280 282 285 286 287 288 287 288 287 289 292 292 288 288 292 299 305 309 313 312 310 302 300 298 296 291 289 285 283 280 277 274
265 268 268 266 265 266 271 272 273 272 274 273 272 274 276 278 277 279 283 284 286 289 288 288 286 288 289 287 288 292 293 293 300 309 311 313 311 314 306 299 296 294 291 288 286 284 282 280 277
Height
10827 10826 10825 10824 10824 10821 10819 10816 10815 10814 10814 10813 10812 10812 10814 10815 10817 10818 10818 10818 10820 10821 10822 10824 10826 10828 10832 10835 10839 10842 10845 10848 10851 10852 10855 10857 10860 10862 10864 10868 10870 10872 10875 10877 10879 10881 10883 10884 10886
10826 10825 10824 10822 10822 10821 10819 10816 10815 10815 10813 10812 10812 10811 10812 10814 10817 10818 10819 10820 10821 10821 10822 10823 10825 10827 10829 10832 10835 10838 10840 10844 10847 10850 10853 10854 10856 10859 10860 10863 10865 10867 10869 10870 10871 10872 10875 10878 10879
10826 10824 10823 10822 10821 10821 10819 10816 10814 10814 10813 10812 10812 10812 10812 10812 10814 10817 10819 10821 10822 10822 10822 10823 10823 10824 10825 10827 10830 10833 10836 10839 10842 10845 10848 10850 10852 10853 10856 10858 10859 10861 10863 10864 10865 10867 10869 10871 10872
10824 10823 10822 10821 10820 10820 10818 10815 10814 10814 10814 10812 10812 10812 10813 10812 10813 10814 10815 10817 10819 10820 10820 10820 10820 10820 10821 10822 10823 10825 10828 10831 10833 10837 10841 10844 10847 10849 10850 10851 10852 10853 10854 10857 10858 10860 10862 10863 10865
10821 10821 10820 10819 10818 10818 10816 10814 10813 10814 10814 10813 10812 10813 10813 10812 10813 10813 10812 10813 10814 10816 10817 10817 10817 10818 10818 10818 10818 10819 10821 10823 10826 10829 10832 10835 10837 10839 10842 10844 10844 10844 10846 10847 10848 10849 10851 10853 10854
10818 10818 10818 10817 10816 10816 10814 10813 10812 10813 10813 10813 10813 10813 10813 10812 10812 10812 10812 10812 10811 10811 10811 10812 10813 10814 10814 10815 10816 10817 10818 10818 10820 10821 10823 10826 10827 10828 10830 10831 10833 10834 10835 10837 10838 10839 10840 10841 10842
10816 10816 10816 10815 10814 10814 10813 10811 10810 10811 10811 10812 10811 10812 10811 10811 10811 10810 10810 10810 10810 10809 10808 10809 10809 10809 10810 10811 10811 10812 10812 10813 10813 10814 10815 10816 10816 10817 10819 10820 10821 10822 10822 10823 10824 10826 10827 10828 10829
10813 10813 10813 10813 10812 10811 10811 10810 10809 10808 10809 10810 10810 10811 10811 10809 10809 10809 10808 10807 10807 10808 10808 10807 10806 10806 10806 10806 10806 10806 10807 10807 10808 10807 10807 10809 10809 10809 10810 10810 10810 10810 10809 10810 10810 10812 10812 10813 10814
10810 10810 10810 10810 10808 10810 10809 10808 10806 10806 10805 10806 10806 10807 10809 10809 10807 10806 10805 10804 10803 10802 10802 10804 10804 10804 10803 10802 10801 10801 10800 10800 10800 10800 10801 10802 10801 10800 10800 10801 10802 10802 10801 10801 10801 10800 10799 10799 10799
10807 10807 10807 10807 10806 10807 10807 10806 10805 10804 10803 10802 10802 10802 10803 10804 10805 10804 10803 10802 10802 10801 10799 10797 10797 10797 10797 10797 10797 10796 10794 10794 10794 10793 10792 10792 10792 10792 10792 10791 10791 10791 10791 10790 10791 10789 10788 10787 10787
10805 10805 10804 10804 10803 10804 10804 10803 10802 10802 10800 10799 10798 10797 10797 10798 10798 10798 10799 10798 10797 10795 10795 10794 10793 10792 10791 10790 10790 10791 10790 10789 10787 10787 10786 10786 10785 10784 10783 10782 10781 10781 10781 10779 10778 10778 10776 10776 10776
10800 10801 10801 10801 10800 10801 10800 10800 10799 10799 10797 10795 10794 10793 10792 10791 10791 10792 10793 10792 10791 10790 10789 10789 10787 10787 10787 10787 10786 10784 10783 10783 10784 10783 10781 10779 10778 10777 10777 10776 10774 10772 10770 10768 10766 10765 10764 10764 10764
10794 10796 10796 10796 10796 10797 10797 10797 10795 10795 10792 10791 10790 10790 10788 10788 10786 10784 10783 10783 10783 10784 10784 10783 10782 10781 10780 10780 10778 10777 10776 10776 10776 10775 10773 10772 10772 10772 10771 10768 10765 10763 10761 10758 10756 10754 10752 10751 10750
10789 10790 10791 10791 10792 10793 10792 10792 10791 10790 10788 10787 10785 10785 10784 10783 10782 10781 10780 10779 10776 10774 10773 10774 10775 10776 10774 10773 10771 10770 10769 10767 10765 10764 10762 10761 10761 10759 10758 10759 10758 10755 10752 10748 10745 10742 10740 10739 10738
10783 10784 10784 10785 10786 10786 10786 10787 10785 10784 10782 10781 10780 10780 10779 10778 10777 10776 10774 10773 10772 10771 10769 10768 10767 10765 10765 10763 10763 10762 10760 10759 10756 10754 10752 10750 10748 10747 10745 10743 10741 10741 10740 10739 10734 10731 10728 10725 10724
10778 10778 10778 10779 10780 10781 10780 10781 10780 10778 10777 10776 10775 10774 10773 10772 10771 10770 10769 10767 10765 10764 10762 10761 10759 10758 10756 10754 10752 10751 10750 10747 10744 10743 10741 10738 10736 10735 10733 10730 10727 10724 10722 10721 10720 10720 10718 10714 10709
10771 10770 10771 10773 10775 10776 10775 10774 10774 10772 10771 10770 10769 10768 10766 10765 10763 10761 10760 10758 10757 10755 10754 10753 10751 10749 10746 10744 10741 10739 10738 10733 10731 10729 10728 10726 10724 10721 10718 10715 10712 10710 10707 10705 10703 10700 10700 10700 10699
10763 10763 10763 10765 10768 10768 10767 10765 10765 10765 10763 10762 10761 10760 10758 10757 10756 10755 10754 10752 10750 10748 10747 10745 10743 10739 10738 10735 10732 10728 10726 10724 10720 10717 10714 10712 10708 10704 10701 10698 10695 10692 10690 10688 10685 10684 10682 10680 10679
10755 10755 10753 10755 10760 10760 10759 10756 10756 10756 10756 10754 10753 10752 10750 10749 10749 10748 10747 10745 10743 10741 10739 10736 10734 10730 10727 10725 10722 10718 10714 10710 10706 10701 10698 10694 10690 10687 10684 10680 10676 10673 10669 10665 10664 10662 10660 10658 10658
10745 10747 10743 10746 10751 10752 10751 10749 10746 10747 10747 10745 10744 10743 10742 10741 10741 10739 10737 10735 10732 10731 10728 10725 10723 10719 10715 10712 10709 10704 10701 10697 10691 10685 10681 10678 10673 10667 10662 10658 10655 10652 10647 10642 10639 10635 10634 10634 10634
10736 10737 10734 10738 10739 10743 10742 10743 10738 10737 10736 10736 10734 10733 10731 10730 10728 10727 10726 10724 10722 10719 10716 10714 10710 10706 10702 10698 10693 10689 10685 10680 10676 10671 10665 10658 10655 10648 10644 10638 10631 10625 10620 10616 10613 10609 10607 10605 10606
10727 10725 10727 10728 10730 10732 10732 10737 10728 10726 10727 10724 10723 10722 10721 10720 10719 10717 10715 10713 10710 10708 10705 10702 10697 10692 10686 10681 10676 10669 10664 10659 10654 10648 10642 10637 10630 10627 10619 10612 10605 10599 10593 10587 10585 10579 10576 10573 10572
10718 10715 10716 10718 10720 10724 10724 10720 10727 10716 10714 10714 10712 10710 10709 10708 10706 10704 10703 10701 10699 10697 10693 10688 10683 10677 10671 10666 10660 10654 10649 10643 10639 10630 10626 10616 10609 10601 10593 10586 10581 10572 10567 10561 10552 10549 10545 10542 10539
10706 10705 10703 10707 10709 10716 10710 10706 10721 10705 10701 10700 10699 10698 10697 10695 10693 10691 10689 10688 10686 10683 10678 10673 10666 10660 10654 10647 10641 10634 10628 10622 10616 10609 10600 10592 10585 10577 10569 10558 10548 10541 10534 10528 10523 10517 10512 10506 10505
10690 10691 10693 10695 10696 10701 10698 10695 10706 10698 10690 10685 10684 10683 10682 10680 10678 10677 10675 10673 10670 10665 10660 10655 10648 10642 10635 10628 10621 10614 10608 10601 10594 10584 10574 10565 10557 10547 10537 10527 10518 10509 10500 10493 10487 10479 10476 10472 10468
10677 10678 10679 10678 10682 10685 10686 10690 10687 10680 10678 10674 10671 10667 10664 10662 10661 10661 10657 10654 10650 10645 10639 10633 10627 10622 10614 10608 10601 10594 10587 10579 10571 10559 10550 10540 10528 10519 10507 10497 10484 10472 10464 10454 10448 10442 10436 10431 10426
10665 10667 10657 10663 10667 10669 10673 10673 10672 10669 10663 10661 10658 10654 10649 10647 10647 10644 10641 10637 10632 10626 10620 10614 10608 10599 10592 10585 10576 10571 10560 10550 10540 10531 10521 10510 10498 10484 10475 10465 10450 10438 10429 10419 10411 10402 10397 10391 10387
10649 10646 10646 10648 10650 10651 10658 10657 10657 10656 10651 10647 10640 10636 10634 10634 10630 10626 10622 10618 10613 10606 10601 10595 10585 10578 10569 10560 10552 10543 10533 10523 10512 10502 10491 10481 10466 10454 10438 10427 10412 10403 10393 10384 10372 10366 10360 10355 10349
10630 10634 10631 10629 10632 10631 10635 10643 10643 10637 10632 10626 10621 10618 10615 10615 10612 10608 10602 10596 10590 10584 10578 10569 10561 10552 10544 10536 10525 10516 10504 10496 10483 10471 10459 10446 10434 10420 10403 10390 10377 10365 10356 10347 10337 10329 10323 10318 10313
10617 10620 10614 10611 10611 10611 10618 10630 10621 10618 10613 10606 10601 10599 10598 10596 10591 10586 10580 10573 10565 10560 10551 10544 10535 10526 10518 10507 10498 10484 10475 10465 10450 10438 10427 10414 10399 10384 10368 10356 10342 10332 10323 10313 10304 10296 10289 10282 10276